SL-24 R/B, 36509

Orbit data source: Space-Track

SL-24 R/B, 36509 is space debris in LEO originally from a launch on Thu, 08 Apr 2010 UTC launched from the Tyuratam Missile And Space Complex (TTMTR). Debris objects in space refer to the collection of defunct objects orbiting the Earth. Examples of debris include non-operational satellites, rocket bodies, and fragments generated from explosions, collisions, or faulty payload assembly.

Loading next visibility...
Identifier
36509, 2010-013B
Orbit
LEO
Country
Flag of CISCIS
Related business
Manufacturer
Yuzhnoe
Mission
Spacecraft
Bus & Motor
15A18-BR, Unknown motor
Mass
~1,000 kg wet, ~1,000 kg dry
Launch date (UTC)
2010-04-08 (15 years ago)
Launch vehicle
Unknown
Launch site
Tyuratam Missile And Space Complex (TTMTR)
Object type
Payload
Rocket body
Debris
Shape & HBR
Cyl, 1.5 m
Radar Cross Section
10.603 m², Large (>1 m²)

Expand to show TLE details & history
Last TLE update: 20 hours ago

TLE from 20 hours ago
0 SL-24 R/B
1 36509U 10013B   25260.05254979 -.00000003  00000-0 -31004-5 0  9992
2 36509  91.9213  22.2460 0273966   4.3736 355.9738 13.93802467785397
Epoch: 2025-09-17T01:15Z
TLE epoch observation values (Epoch: 2025-09-17T01:15:40.301Z)
Latitude
-0.0001°
Longitude
7.09405°
Altitude
719.012 km
Speed
7.598 km/s
True Right ascension
01h 28m 59s
True Declination
0° 00' 00"
Sunlit
Object was in full shadow at epoch
Visualization orbit readout
Latitude
Unknown
Longitude
Unknown
Altitude
Unknown
Speed
Unknown
Apparent Right ascension
Unknown
Apparent Declination
Unknown
Sunlit
N/A
Visualization observer readout
Local Sidereal Time
14:13:08
Azimuth
Unknown
Elevation
Unknown
Doppler factor
Unknown
Orbital elements
Apogee altitude
1,112.063 km
Perigee altitude
712.595 km
Semi-major axis
7,290.466 km
Eccentricity
0.0274
Inclination
91.9213°
RAAN
22.246°
Arg. of periapsis
4.3736°
True anomaly
355.74559°
Mean anomaly
355.9738°
Eccentric anomaly
355.86049°
Mean motion
3.48667 °/min
Orbital period
103.25 mins
BSTAR
-0.0000031004
Loading maneuver chart data...
Computing Atmospheric mass density...
Loading historical data...
Loading historical data...
Loading historical data...
Loading historical data...
Loading historical data...
Loading historical data...
Loading historical data...
Other satellites on launch #13 in the year 2010 (2010-04-08 UTC)

Documentation

Showing up to 5 results
|